Home > Weather > Appleton > Past weeks

Flag for USA Past Weather in Appleton, Wisconsin, USA — Yesterday and Last 2 Weeks

Now
77 °F

Scattered clouds.


Feels Like: 78 °F
Forecast: 69 / 86 °F
Wind: 7 mph from Southwest

Location: Appleton / Outagamie

Current Time: Jun 26, 2016 at 12:15:53 PM

Latest Report: Jun 26, 2016 at 10:45 AM


Visibility: 10 mi

Pressure: 29.94 "Hg

Humidity: 83%

Dew Point: 72 °F

Location of AppletonLocation

Past Weather in Appleton — Graph

°F

Appleton Temperature Yesterday

Maximum temperature yesterday: 88 °F (at 2:45 PM)
Minimum temperature yesterday: 64 °F (at 2:15 AM)
Average temperature yesterday: 74 °F

High & Low Weather Summary for the Past Weeks

 TemperatureHumidityPressure
High88 °F (Jun 11, 2:45 PM)100% (Jun 13, 10:45 AM)30.24 "Hg (Jun 13, 10:45 AM)
Low54 °F (Jun 13, 2:15 AM)26% (Jun 20, 1:45 PM)29.63 "Hg (Jun 15, 3:15 AM)
Average67 °F64%29.98 "Hg
* Reported Jun 11 10:45 AM — Jun 26 10:45 AM, Appleton, Weather by CustomWeather, © 2016

Note: Actual official high and low records may vary slightly from our data, if they occured in-between our weather recording intervals... More about our weather records

Advertising

Appleton Weather History for the Previous 24 Hours

Scroll right to see more
 ConditionsComfort  
Time TempWeatherWind HumidityBarometerVisibility
10:45 AM
Sun, Jun 26
77 °FScattered clouds.7 mph83%29.94 "Hg10 mi
9:45 AM73 °FPartly sunny.12 mph94%29.93 "Hg10 mi
8:45 AM72 °FLow clouds.12 mph100%29.94 "Hg10 mi
7:45 AM70 °FMostly cloudy.8 mph100%29.95 "Hg10 mi
6:00 AM68 °FLight rain. Mostly cloudy.6 mph100%29.93 "Hg6 mi
5:15 AM66 °FOvercast.6 mph100%29.91 "Hg10 mi
4:55 AM68 °FLight rain. Partly cloudy.5 mph100%29.91 "Hg10 mi
4:35 AM68 °FRain. Partly cloudy.5 mph100%29.90 "Hg10 mi
4:15 AM68 °FThunderstorms. Overcast.10 mph100%29.88 "Hg7 mi
3:55 AM68 °FStrong thunderstorms. Overcast.9 mph100%29.88 "Hg2 mi
3:15 AM70 °FThundershowers. Overcast.15 mph83%29.90 "Hg1 mi
2:55 AM73 °FLight rain. Mostly cloudy.13 mph83%29.85 "Hg5 mi
2:35 AM77 °FPassing clouds.17 mph65%29.85 "Hg10 mi
2:15 AM77 °FPassing clouds.21 mph65%29.84 "Hg10 mi
1:55 AM79 °FPassing clouds.16 mph70%29.84 "Hg10 mi
1:35 AM79 °FClear.16 mph70%29.85 "Hg10 mi
1:15 AM79 °FPassing clouds.14 mph70%29.85 "Hg10 mi
12:55 AM79 °FOvercast.13 mph70%29.86 "Hg10 mi
12:35 AM79 °FPassing clouds.16 mph70%29.87 "Hg10 mi
12:15 AM79 °FPassing clouds.15 mph70%29.87 "Hg10 mi
11:55 PM
Sat, Jun 25
81 °FPassing clouds.16 mph66%29.88 "Hg10 mi
11:15 PM81 °FClear.14 mph66%29.88 "Hg10 mi
10:45 PM81 °FPassing clouds.16 mph66%29.89 "Hg10 mi
9:45 PM82 °FPassing clouds.13 mph58%29.91 "Hg10 mi
8:45 PM82 °FPartly sunny.10 mph58%29.91 "Hg10 mi
7:45 PM84 °FPartly sunny.13 mph51%29.88 "Hg10 mi
5:45 PM86 °FPartly sunny.16 mph49%29.89 "Hg10 mi
4:45 PM86 °FBroken clouds.17 mph46%29.93 "Hg10 mi
3:45 PM88 °FBroken clouds.23 mph43%29.95 "Hg10 mi
2:45 PM88 °FBroken clouds.17 mph46%29.96 "Hg10 mi
1:45 PM86 °FBroken clouds.10 mph52%29.98 "Hg10 mi
12:45 PM84 °FScattered clouds.17 mph51%29.99 "Hg10 mi
Weather by CustomWeather, © 2016

See weather overviewHow to use our weather pages